Total_Precipitation_Accumulation
0.80 0.57 0.27 0.90 0.55 0.60 0.94 0.99 0.58 0.45 0.36 0.30 0.26 0.16 0.13 0.08 0.08 0.13 0.32 0.46 0.50 0.66 0.35 0.22 0.29 0.34 0.28 0.36 0.32 0.25 0.28 0.25 0.31 0.37 0.42 0.37 0.30 0.35 0.32 0.21 0.24 0.37 0.26 0.52 0.53 0.49 0.37 0.39 0.70 0.59 0.67 0.60 0.85 0.45 0.34 0.33 0.38 0.41 0.29 0.29 0.32 0.28 0.46 0.57 0.64 0.42 0.31 0.12 0.17 0.24 0.59 0.97 0.33 0.14 0.18 0.17 0.08 0.11 0.07 0.09 0.34 0.59 0.67 0.42 0.42
1.37 1.14 1.09 1.07 1.10 1.09 1.01 1.21 1.15 0.93 0.57 0.26 0.30 0.15 0.05 0.09 0.17 0.23 0.34 0.60 0.93 0.53 0.37 0.48 0.43 0.32 0.32 0.37 0.36 0.48 0.38 0.21 0.30 0.30 0.26 0.49 0.50 0.46 0.89 0.75 0.49 0.48 0.85 0.43 0.59 0.35 0.49 0.70 0.70 0.86 0.66 0.54 0.34 0.47 0.27 0.33 0.29 0.55 0.38 0.33 0.25 0.37 0.48 0.70 0.70 0.35 0.23 0.15 0.29 1.12 0.63 0.65 0.52 0.23 0.18 0.33 0.27 0.24 0.75 0.29 0.15 0.18 0.39 0.29 0.43
0.75 1.24 1.59 1.69 1.34 2.50 1.64 1.99 1.16 0.49 0.22 0.23 0.21 0.38 0.60 0.11 0.31 0.24 0.38 1.01 0.50 0.56 0.39 0.63 0.42 0.42 0.42 0.23 0.33 0.27 0.21 0.29 0.30 0.30 0.20 0.18 0.36 0.36 0.31 0.29 0.19 0.25 0.21 0.18 0.41 0.58 1.04 0.77 0.87 0.81 0.89 0.62 0.69 0.48 0.44 0.45 0.46 0.36 0.23 0.22 0.28 0.42 0.41 0.49 0.79 0.50 0.28 0.16 0.25 0.30 0.19 0.22 0.21 0.14 0.09 0.11 0.10 0.23 0.26 0.30 0.45 0.50 0.71 0.65 0.36
1.09 1.27 1.65 1.57 1.90 1.13 1.38 1.13 0.68 0.74 0.59 0.69 0.65 0.50 0.33 0.13 0.31 0.90 0.91 0.36 0.17 0.15 0.29 0.42 0.36 0.47 0.42 0.40 0.40 0.23 0.33 0.20 0.23 0.26 0.16 0.16 0.27 0.21 0.25 0.16 0.32 0.23 0.41 0.44 0.47 0.54 0.28 0.34 0.23 0.71 0.48 0.39 0.46 0.77 0.91 0.65 0.57 0.58 0.57 0.52 0.24 0.37 0.58 0.64 0.39 0.57 0.34 0.36 0.33 0.25 0.20 0.16 0.20 0.51 0.09 0.36 0.31 0.30 0.36 0.90 1.26 1.00 0.82 0.80 0.60
0.92 1.69 1.98 1.58 1.57 2.09 1.63 1.57 1.34 0.86 0.84 0.81 0.69 0.42 0.75 0.77 0.70 0.84 0.75 0.49 0.28 0.31 0.39 0.21 0.35 0.33 0.39 0.24 0.27 0.27 0.28 0.48 0.32 0.21 0.23 0.28 0.39 0.36 0.27 0.27 0.44 0.68 0.55 0.50 0.79 0.50 0.36 0.36 0.40 0.50 0.52 0.48 0.76 0.48 0.29 0.34 0.29 0.54 1.48 0.49 0.55 0.39 0.41 0.37 0.67 0.88 0.86 0.72 0.46 0.45 0.39 0.50 0.72 0.59 0.58 0.73 0.95 1.21 1.30 0.86 1.00 0.51 0.41 0.69 0.69
1.58 1.35 1.80 2.08 2.15 2.44 2.17 1.39 1.47 1.29 2.04 1.20 0.75 1.00 1.27 1.08 0.84 0.76 0.52 0.61 0.41 0.32 0.27 0.33 0.15 0.28 0.29 0.19 0.20 0.34 0.38 0.40 0.38 0.26 0.15 0.27 0.33 0.46 0.46 0.52 0.49 0.73 0.75 0.77 0.36 0.56 0.38 0.57 0.62 0.86 0.84 0.87 0.33 0.21 0.18 0.20 0.24 0.25 0.48 1.32 0.46 0.73 0.89 1.05 0.92 0.89 1.03 1.42 0.69 0.49 0.36 0.32 0.59 0.34 0.23 0.35 1.01 0.57 0.49 0.74 0.70 1.05 0.75 0.80 0.53
1.01 1.41 1.63 2.08 2.02 2.34 3.31 1.32 1.32 1.56 1.20 0.98 1.03 1.45 1.04 0.98 0.67 0.59 0.75 0.48 0.38 0.48 0.26 0.18 0.20 0.36 0.38 0.26 0.21 0.46 1.12 0.94 0.42 0.30 0.27 0.28 0.56 0.51 0.53 0.71 0.90 0.91 0.70 0.67 0.35 0.44 0.43 0.50 0.50 0.62 0.59 0.77 0.30 0.32 0.30 0.39 0.26 0.25 0.87 0.80 0.48 0.82 0.80 1.15 0.89 1.51 1.60 0.76 0.54 0.55 0.54 0.50 0.66 0.37 0.25 0.21 0.73 0.65 0.81 0.66 0.44 0.34 0.41 0.67 0.69
0.88 1.12 1.37 1.01 1.50 1.92 1.44 1.70 2.08 2.45 1.53 1.03 1.13 1.03 0.99 0.87 0.55 0.69 0.58 0.44 0.38 0.48 0.52 0.48 0.56 0.42 0.35 0.26 0.24 0.35 1.15 1.44 0.45 0.34 0.25 0.36 0.52 0.77 0.64 0.52 0.80 0.63 0.34 0.33 0.58 0.33 0.29 0.58 1.07 0.63 0.84 0.70 0.40 0.78 0.59 0.75 0.77 0.57 0.40 0.56 0.74 0.67 0.95 1.19 1.80 0.80 0.69 0.71 0.92 0.67 0.62 0.56 0.55 0.53 0.77 1.08 0.63 0.80 0.48 0.50 0.75 0.55 0.63 0.53 0.41
0.77 1.15 0.97 1.00 0.78 1.42 2.55 2.68 2.31 2.30 2.12 1.18 1.21 1.22 1.07 0.92 0.92 0.76 0.97 1.18 0.78 1.04 0.79 0.42 0.42 0.41 0.44 0.30 0.26 0.46 0.81 1.03 0.40 0.45 0.14 0.17 0.43 1.05 0.87 0.85 0.85 0.41 0.30 0.41 0.35 0.46 0.23 0.35 0.93 1.45 1.46 0.52 1.00 0.93 0.64 0.98 1.04 0.66 0.79 1.03 0.80 0.59 1.08 1.00 0.82 0.95 0.99 0.75 0.80 0.77 1.04 0.79 0.66 0.57 0.51 0.31 0.26 0.38 0.27 0.25 0.42 0.56 1.18 1.10 0.45
0.90 1.47 1.29 1.16 1.52 1.59 1.92 1.88 2.21 2.15 1.55 1.37 1.63 1.23 1.22 1.31 1.14 0.65 1.26 1.47 0.43 0.59 1.16 0.62 0.37 0.20 0.30 0.33 0.31 1.03 0.87 0.75 0.32 0.11 0.11 0.18 0.32 0.88 0.58 0.78 1.18 0.54 0.38 0.46 0.59 0.35 0.24 0.51 1.02 1.65 0.70 0.97 0.72 0.30 0.34 0.31 0.35 0.48 1.50 0.77 0.58 0.51 0.67 0.82 0.97 0.81 1.23 1.44 1.44 0.83 1.03 0.61 0.69 0.73 0.53 0.37 0.51 0.44 0.61 0.70 0.75 0.44 0.53 0.55 0.87
0.76 0.77 0.73 0.56 0.81 1.16 1.63 1.78 1.62 1.35 1.44 1.46 1.24 1.24 1.88 1.00 0.81 0.92 1.30 1.51 2.78 1.82 0.69 0.47 0.21 0.35 1.07 0.63 0.89 0.89 0.68 0.32 0.20 0.12 0.14 0.72 1.08 1.07 0.59 0.59 0.60 0.41 0.24 0.31 0.66 0.80 0.54 0.60 1.22 1.06 0.85 0.67 0.40 0.34 0.24 0.27 0.36 0.28 0.38 0.47 0.86 0.60 0.49 0.66 1.05 0.68 1.18 0.91 0.75 0.85 0.75 0.59 0.36 0.50 0.65 0.52 0.36 0.37 0.47 0.48 0.55 0.72 1.00 0.64 0.49
0.99 1.45 1.53 1.04 0.85 0.64 0.59 1.07 1.54 1.66 1.91 1.41 1.40 1.22 1.19 1.49 1.09 0.90 0.97 1.19 1.60 0.45 0.32 0.55 0.61 0.80 0.59 0.38 0.35 0.39 0.51 0.62 0.64 0.27 0.26 0.45 0.75 0.83 0.38 0.46 0.40 0.29 0.17 0.25 0.54 1.12 1.07 1.10 1.60 1.16 0.41 0.66 0.39 0.39 0.43 0.33 0.65 0.51 0.27 0.22 0.31 0.53 0.55 0.77 0.67 0.98 0.84 0.84 0.85 0.61 0.68 0.90 0.46 0.27 0.40 0.62 0.63 0.55 0.47 0.67 0.65 0.49 0.76 0.82 0.48
1.62 1.02 0.77 0.86 0.62 0.75 0.95 0.66 0.92 1.21 1.48 1.45 1.53 1.32 1.22 1.24 1.45 1.47 1.20 2.07 2.15 0.93 0.22 0.51 0.31 0.38 0.28 0.46 0.65 0.57 0.90 0.94 0.77 0.32 0.46 0.72 0.50 0.27 0.63 0.46 0.65 0.36 0.30 0.29 0.74 0.81 1.81 1.63 0.68 0.61 0.38 0.40 0.68 0.74 0.34 0.43 0.42 0.44 0.26 0.15 0.41 0.68 0.35 0.25 0.54 0.79 0.69 1.09 1.35 1.17 0.54 0.35 0.43 0.42 0.37 0.43 0.27 1.02 0.76 0.55 0.48 0.72 0.51 0.55 0.58
1.12 0.84 0.47 0.69 0.66 0.55 0.53 0.52 0.57 0.73 1.12 1.29 1.29 1.48 1.25 1.32 1.49 1.43 0.80 0.96 0.96 0.73 0.47 0.34 0.26 0.30 0.41 0.69 0.72 0.75 0.55 0.67 0.81 0.42 0.30 0.33 0.62 0.78 0.55 0.41 0.38 0.37 0.45 0.55 0.54 0.95 1.12 0.56 0.63 0.58 0.38 0.44 0.75 0.33 0.36 0.43 0.34 0.32 0.28 0.26 0.46 0.51 0.34 0.36 0.34 0.29 0.43 0.69 0.73 0.71 0.46 0.56 0.75 0.44 0.61 0.52 0.67 1.01 0.90 0.55 0.68 0.50 0.51 0.69 0.81
1.38 0.78 0.50 0.71 0.80 0.86 0.92 0.73 0.50 0.64 0.99 1.18 1.23 1.13 1.12 0.95 0.88 1.10 1.17 0.93 0.87 0.59 0.39 0.43 0.26 0.47 0.27 0.38 0.26 0.23 0.28 0.12 0.13 0.25 0.33 0.32 0.73 0.60 0.41 0.48 0.43 0.74 1.19 0.77 0.90 0.64 0.44 0.55 0.79 0.52 0.46 0.32 0.20 0.14 0.17 0.13 0.23 0.30 0.44 0.56 0.27 0.28 0.36 0.38 0.42 0.34 0.46 0.77 0.98 0.59 0.54 0.49 0.68 0.66 0.48 0.71 0.73 0.95 1.17 1.25 0.76 1.36 1.70 1.01 1.13
1.56 0.91 0.49 0.47 0.75 0.64 0.65 1.15 1.05 0.66 0.97 0.99 1.39 1.63 0.93 0.94 0.82 0.98 0.80 0.89 0.84 0.88 0.66 0.70 0.37 0.51 0.36 0.47 0.70 0.59 0.59 0.36 0.33 0.29 0.28 0.26 0.38 0.42 0.51 0.45 0.35 0.65 0.63 0.89 1.87 0.85 0.52 0.58 0.76 0.51 0.42 0.32 0.18 0.24 0.25 0.19 0.54 0.42 0.53 0.42 0.33 0.30 0.34 0.28 0.25 0.34 0.77 0.60 0.74 1.45 0.70 0.55 0.47 0.53 0.82 0.71 0.70 0.73 0.75 0.86 1.43 1.12 1.20 1.74 1.22
0.90 0.87 0.78 0.65 0.66 0.57 0.57 0.73 1.16 0.92 1.26 1.25 1.32 1.21 1.10 0.96 0.97 0.91 0.82 0.86 0.78 0.78 0.63 0.73 0.56 0.71 0.51 0.59 0.56 0.62 0.43 0.28 0.29 0.26 0.24 0.29 0.54 0.55 0.46 0.48 0.62 0.50 0.52 0.51 0.57 0.58 0.48 0.52 0.70 0.42 0.38 0.43 0.17 0.18 0.23 0.29 0.50 0.54 0.36 0.38 0.43 0.34 0.32 0.35 0.29 0.24 0.28 0.38 0.51 0.45 0.54 0.68 0.65 0.73 0.56 0.85 1.36 0.99 1.39 1.33 1.19 1.01 1.43 1.35 1.15
0.92 0.94 0.89 0.83 1.05 0.73 0.77 0.67 0.86 0.97 1.01 0.93 1.14 1.34 1.34 1.12 0.93 0.91 1.00 0.94 1.03 1.45 0.97 0.89 0.83 0.88 0.66 0.74 0.74 0.73 0.57 0.53 0.37 0.43 0.27 0.34 0.29 0.35 0.34 0.41 1.01 0.69 1.22 1.01 0.87 0.56 0.48 0.33 0.48 0.58 0.69 0.46 0.15 0.38 0.40 1.22 1.92 0.86 0.55 0.43 0.59 0.63 0.62 0.52 0.47 0.66 0.31 0.41 0.44 0.38 0.36 0.52 0.52 0.57 0.54 0.74 0.99 1.21 1.63 1.95 1.61 1.20 1.06 1.00 1.23
0.78 0.89 1.07 0.94 0.96 1.15 1.00 0.96 1.09 1.11 1.10 1.32 1.22 1.28 1.61 1.34 1.41 0.94 0.93 0.91 0.83 0.76 1.09 0.87 0.82 1.07 1.09 1.08 0.79 1.04 1.20 0.88 0.64 0.69 0.44 0.53 0.54 0.50 0.51 0.75 0.80 0.60 0.85 1.11 1.52 1.74 1.76 0.66 0.43 0.51 0.65 0.50 0.67 0.42 0.51 0.81 1.05 1.08 0.88 0.42 0.50 0.48 0.70 0.51 0.54 0.68 0.41 0.47 0.68 0.77 0.79 0.88 1.21 1.11 1.01 0.60 0.81 1.54 1.44 1.38 1.37 1.54 1.56 1.31 1.45
0.45 0.63 0.79 0.78 0.98 1.21 1.25 1.48 1.16 0.99 0.94 0.96 1.03 1.28 1.45 1.34 1.53 1.32 0.86 0.69 0.63 0.58 0.71 0.67 0.66 0.70 0.73 0.77 0.83 1.02 1.04 1.23 1.12 0.66 0.81 0.72 0.52 0.88 0.76 0.62 0.64 0.65 0.89 1.01 0.82 0.71 2.00 1.57 0.69 0.50 0.41 0.44 0.39 0.36 0.42 0.45 1.15 0.74 0.42 0.49 0.58 0.79 1.01 1.57 1.46 1.62 1.30 0.91 0.63 0.46 0.57 0.53 0.55 0.72 0.75 0.95 1.60 1.11 2.35 1.98 1.73 1.67 2.41 1.83 1.89
0.45 0.51 0.52 0.72 0.84 0.93 1.22 1.21 1.13 1.18 0.89 0.72 0.90 0.81 1.00 1.01 1.00 1.01 0.95 0.84 0.87 0.62 0.56 0.78 0.87 0.92 0.78 0.77 0.83 1.02 0.91 0.92 0.95 0.91 0.88 0.89 0.89 0.84 0.89 0.80 0.98 1.14 0.87 0.91 0.98 1.17 0.99 0.99 0.98 0.89 0.62 0.64 0.61 0.63 0.65 0.68 0.62 0.60 0.65 0.73 0.80 0.99 1.05 1.22 0.87 1.16 1.24 1.10 0.96 0.82 0.71 0.67 0.73 0.69 0.72 0.94 1.14 1.54 1.82 1.94 1.97 2.03 2.22 1.99 1.55
0.35 0.45 0.45 0.46 0.46 0.71 0.71 0.94 1.05 1.02 1.13 1.16 0.87 0.73 0.76 0.87 0.82 0.81 0.88 1.00 0.87 0.82 0.62 0.61 0.52 0.57 0.63 0.71 0.67 0.74 0.75 0.71 0.72 0.68 0.55 0.49 0.50 0.58 0.69 0.82 0.81 0.75 0.73 0.77 0.83 0.99 0.96 1.48 1.30 1.65 1.21 1.19 0.82 0.77 0.73 0.66 0.77 1.08 1.09 1.17 1.49 1.08 1.11 0.99 0.88 0.79 0.97 1.07 1.23 1.10 1.07 1.06 0.91 1.07 1.13 0.96 1.00 1.00 1.21 1.46 2.10 2.18 1.82 1.63 1.54
0.07 0.15 0.19 0.28 0.36 0.40 0.54 0.62 0.81 0.90 0.93 0.98 1.20 1.18 0.83 0.78 0.79 0.85 0.86 0.84 0.78 0.78 0.78 0.75 0.65 0.64 0.55 0.58 0.54 0.53 0.60 0.59 0.58 0.67 0.53 0.45 0.37 0.30 0.36 0.49 0.48 0.81 0.87 0.97 1.12 1.23 1.77 1.24 1.29 1.14 0.74 0.98 1.02 1.02 1.16 1.28 1.06 1.06 1.15 1.10 1.26 1.34 1.14 0.99 0.97 0.98 0.95 1.10 1.39 1.56 1.83 1.62 1.74 1.56 1.31 1.42 1.49 1.50 1.69 1.39 1.53 1.68 1.86 2.11 1.70
0.02 0.03 0.05 0.09 0.10 0.16 0.27 0.39 0.47 0.64 0.80 0.83 0.92 1.08 1.01 0.96 1.07 0.97 0.99 1.05 0.99 0.82 0.73 0.68 0.65 0.70 0.68 0.60 0.55 0.49 0.48 0.50 0.50 0.46 0.45 0.44 0.39 0.35 0.33 0.35 0.32 0.36 0.52 0.90 1.04 0.96 1.20 1.10 1.03 0.83 0.95 0.82 1.03 1.02 1.02 1.14 1.13 1.13 0.99 1.11 1.50 1.40 1.17 1.32 1.50 1.49 1.36 1.25 1.21 1.21 1.55 2.05 2.37 2.36 2.61 2.50 2.17 2.18 2.03 1.83 1.88 1.65 1.88 1.99 2.15
0.02 0.03 0.04 0.03 0.03 0.07 0.08 0.16 0.32 0.42 0.58 0.85 0.79 0.85 1.15 1.07 0.93 0.87 0.88 0.95 0.94 0.90 0.83 0.75 0.72 0.72 0.81 0.93 0.70 0.59 0.55 0.52 0.51 0.47 0.44 0.39 0.36 0.37 0.36 0.33 0.33 0.36 0.44 0.47 0.60 0.84 0.98 1.04 1.01 1.03 1.05 0.72 0.72 0.91 1.03 1.15 0.99 1.12 1.18 1.39 1.25 1.11 1.22 1.23 1.09 1.08 1.30 1.41 1.66 1.83 1.74 1.76 1.92 2.28 2.44 2.26 2.06 1.82 1.68 1.76 1.85 1.82 2.02 1.92 1.72
0.03 0.01 0.03 0.06 0.04 0.03 0.04 0.07 0.12 0.20 0.24 0.62 0.69 0.78 0.85 0.81 0.85 0.81 0.73 0.77 0.75 0.71 0.80 0.71 0.76 0.77 0.81 0.72 0.72 0.76 0.69 0.62 0.60 0.55 0.47 0.43 0.39 0.40 0.40 0.41 0.42 0.45 0.59 0.67 0.54 0.62 0.71 0.67 0.78 0.78 1.02 0.94 0.85 0.75 0.77 0.92 0.97 1.00 1.08 0.92 0.93 0.91 0.98 1.15 1.20 1.23 1.30 1.19 1.25 1.23 1.44 1.38 1.29 1.24 1.29 1.49 1.48 1.54 1.58 1.39 1.49 1.71 1.54 1.36 1.32
0.18 0.12 0.09 0.04 0.04 0.09 0.16 0.23 0.12 0.08 0.06 0.14 0.36 0.42 0.59 0.77 0.61 0.62 0.54 0.75 0.72 0.68 0.73 0.73 0.69 0.61 0.57 0.58 0.54 0.49 0.53 0.61 0.69 0.68 0.72 0.58 0.56 0.57 0.62 0.49 0.44 0.57 0.74 0.70 0.63 0.64 0.60 0.63 0.78 0.94 0.86 0.90 1.01 0.81 0.64 0.64 0.72 0.87 1.36 1.38 1.10 1.16 1.10 0.90 1.03 1.05 1.06 1.07 1.12 1.12 1.17 1.17 1.11 0.98 0.92 0.92 1.06 1.20 1.28 1.58 1.29 1.45 1.37 1.52 1.28
0.31 0.25 0.20 0.15 0.12 0.12 0.11 0.08 0.06 0.06 0.05 0.14 0.21 0.24 0.38 0.39 0.48 0.50 0.55 0.63 0.70 0.95 0.76 0.70 0.75 0.66 0.63 0.60 0.57 0.49 0.46 0.45 0.50 0.49 0.67 0.77 0.80 0.68 0.74 0.50 0.47 0.44 0.69 0.62 0.60 0.61 0.72 0.69 0.66 0.93 1.06 1.08 0.87 0.77 0.74 0.68 0.60 0.64 0.90 0.88 1.19 1.12 0.99 0.91 0.84 0.91 0.98 1.07 1.02 0.89 0.83 0.86 0.94 0.99 0.97 0.94 0.97 1.06 1.01 1.18 1.34 1.37 1.42 1.32 1.39
0.22 0.26 0.28 0.27 0.26 0.22 0.23 0.18 0.16 0.13 0.12 0.10 0.13 0.16 0.29 0.46 0.32 0.43 0.43 0.43 0.50 0.73 0.87 0.82 0.84 0.87 0.82 0.76 0.84 0.73 0.67 0.65 0.59 0.53 0.73 0.58 0.51 0.48 0.78 0.81 0.85 0.96 0.93 0.72 1.04 0.89 0.73 0.99 1.01 0.79 0.77 0.86 0.82 0.79 0.80 0.76 0.74 0.68 0.67 0.73 0.63 0.59 0.61 0.67 0.68 0.72 0.69 0.71 0.78 0.89 0.92 0.80 0.74 0.75 0.77 0.87 0.90 0.93 0.86 0.94 0.99 1.06 1.34 1.59 1.56
0.13 0.17 0.20 0.24 0.25 0.27 0.29 0.26 0.20 0.16 0.20 0.25 0.26 0.14 0.12 0.18 0.22 0.28 0.40 0.33 0.24 0.23 0.25 0.50 0.65 0.71 0.69 0.75 0.52 1.17 0.82 0.88 0.73 0.60 0.58 0.60 0.62 0.58 0.59 0.59 0.44 0.57 0.43 0.48 0.75 0.80 0.53 0.55 0.63 0.88 0.97 0.87 1.01 0.95 0.84 0.84 0.74 0.74 0.66 0.65 0.63 0.96 0.80 0.83 0.75 0.64 0.53 0.54 0.56 0.61 0.61 0.59 0.66 0.70 0.74 0.77 0.86 0.91 0.88 0.91 1.06 1.00 1.03 1.25 1.61
0.11 0.10 0.14 0.17 0.19 0.18 0.22 0.27 0.27 0.29 0.55 0.51 0.24 0.24 0.20 0.11 0.13 0.16 0.15 0.20 0.25 0.35 0.26 0.28 0.24 0.23 0.34 0.60 0.54 0.47 0.50 0.56 0.67 0.71 0.66 0.74 0.73 0.66 0.53 0.41 0.48 0.50 0.56 1.07 0.74 0.64 0.56 0.57 0.58 0.76 0.84 1.27 1.59 1.49 1.08 1.09 0.99 0.96 0.94 0.82 0.71 0.73 0.70 0.61 0.62 0.64 0.57 0.60 0.56 0.61 0.72 0.71 0.74 0.72 0.73 0.65 0.64 0.68 0.71 0.87 0.93 1.00 1.16 1.24 1.32
0.14 0.12 0.08 0.19 0.17 0.17 0.24 0.19 0.29 0.48 0.37 0.21 0.18 0.34 0.46 0.51 0.39 0.14 0.13 0.18 0.16 0.15 0.16 0.19 0.29 0.21 0.34 0.31 0.39 0.60 0.62 0.46 0.51 0.59 0.52 0.56 0.57 0.60 0.58 0.53 0.48 0.45 0.36 0.26 0.48 0.63 0.55 0.68 0.82 1.06 0.69 0.63 0.95 0.83 0.86 0.92 0.97 0.89 0.77 0.89 0.86 0.83 0.85 0.94 0.89 0.76 0.67 0.67 0.61 0.56 0.54 0.60 0.57 0.60 0.64 0.72 0.77 0.73 0.79 0.78 0.87 0.88 0.96 1.00 1.10
0.21 0.15 0.17 0.13 0.26 0.18 0.12 0.29 0.29 0.41 0.29 0.17 0.20 0.16 0.21 0.18 0.35 0.40 0.13 0.08 0.08 0.09 0.11 0.11 0.18 0.26 0.23 0.29 0.29 0.22 0.26 0.53 0.53 0.54 0.70 0.56 0.45 0.46 0.37 0.31 0.32 0.28 0.28 0.29 0.29 0.34 0.32 0.40 0.52 0.55 0.87 0.74 0.79 0.74 0.58 0.63 0.78 0.80 0.81 0.81 0.72 0.83 0.79 0.69 0.66 0.67 0.62 0.75 0.70 0.70 0.69 0.63 0.63 0.60 0.56 0.61 0.62 0.68 0.74 0.95 0.95 0.91 1.00 1.15 1.15
0.24 0.17 0.13 0.29 0.18 0.25 0.21 0.34 0.37 0.25 0.23 0.12 0.13 0.13 0.37 0.16 0.16 0.18 0.50 0.69 0.72 0.31 0.22 0.09 0.12 0.09 0.13 0.30 0.40 0.25 0.34 0.60 0.38 0.43 0.47 0.48 0.40 0.40 0.35 0.56 0.28 0.26 0.27 0.30 0.25 0.35 0.33 0.29 0.45 0.48 0.54 0.50 0.62 0.53 0.51 0.62 0.69 0.51 0.61 0.65 0.77 0.82 0.78 0.66 0.67 0.67 0.75 0.63 0.69 0.64 0.57 0.48 0.56 0.51 0.56 0.64 0.62 0.69 0.68 0.65 0.75 0.95 0.95 0.90 0.98
0.19 0.27 0.15 0.31 0.33 0.20 0.50 0.15 0.29 0.57 0.22 0.07 0.08 0.09 0.15 0.20 0.35 0.34 0.25 0.22 0.21 0.30 0.63 0.43 0.18 0.06 0.33 0.11 0.09 0.17 0.26 0.32 0.44 0.34 0.20 0.21 0.21 0.27 0.28 0.26 0.21 0.20 0.19 0.20 0.37 0.26 0.28 0.35 0.32 0.27 0.30 0.30 0.44 0.54 0.47 0.44 0.44 0.42 0.44 0.41 0.45 0.47 0.53 0.68 0.79 0.64 0.63 0.64 0.63 0.55 0.48 0.47 0.45 0.46 0.52 0.56 0.54 0.58 0.58 0.62 0.57 0.58 0.62 0.61 0.67
0.30 0.24 0.30 0.34 0.48 0.56 0.44 0.34 0.27 0.20 0.18 0.29 0.07 0.22 0.15 0.11 0.16 0.19 0.11 0.45 0.21 0.16 0.12 0.12 0.24 0.18 0.26 0.09 0.12 0.10 0.12 0.17 0.28 0.31 0.38 0.23 0.24 0.20 0.41 0.39 0.59 0.51 0.39 0.34 0.31 0.35 0.27 0.44 0.25 0.22 0.25 0.24 0.29 0.33 0.29 0.35 0.36 0.38 0.35 0.40 0.36 0.34 0.34 0.33 0.39 0.48 0.55 0.53 0.50 0.50 0.53 0.59 0.58 0.54 0.56 0.60 0.60 0.58 0.57 0.55 0.54 0.58 0.59 0.62 0.63
0.33 0.39 0.43 0.30 0.42 0.44 0.16 0.20 0.95 0.22 0.06 0.13 0.28 0.17 0.17 0.24 0.20 0.13 0.13 0.11 0.12 0.22 0.41 0.34 0.11 0.20 0.42 0.50 0.25 0.12 0.10 0.11 0.17 0.25 0.38 0.31 0.34 0.37 0.17 0.26 0.28 0.23 0.30 0.53 0.33 0.25 0.21 0.24 0.24 0.19 0.21 0.38 0.21 0.24 0.30 0.28 0.26 0.26 0.26 0.28 0.29 0.27 0.23 0.23 0.25 0.28 0.33 0.39 0.45 0.50 0.55 0.53 0.55 0.62 0.63 0.62 0.52 0.48 0.48 0.48 0.51 0.54 0.55 0.53 0.60
0.35 0.31 0.37 0.39 0.43 1.48 0.28 0.20 0.13 0.19 0.18 0.14 0.14 0.08 0.08 0.24 0.10 0.06 0.09 0.09 0.09 0.20 0.23 0.17 0.04 0.12 0.21 0.29 0.26 0.20 0.33 0.22 0.26 0.38 0.13 0.11 0.19 0.40 0.42 0.10 0.14 0.18 0.18 0.17 0.14 0.21 0.82 0.32 0.40 0.26 0.23 0.21 0.23 0.24 0.23 0.33 0.31 0.46 0.30 0.29 0.24 0.25 0.24 0.27 0.28 0.28 0.29 0.32 0.38 0.47 0.54 0.59 0.58 0.63 0.64 0.64 0.54 0.46 0.44 0.44 0.49 0.54 0.54 0.52 0.59
0.40 0.36 0.41 0.49 0.36 0.27 0.20 0.43 0.31 0.14 0.08 0.10 0.28 0.14 0.08 0.11 0.09 0.12 0.18 0.09 0.20 0.26 0.35 0.34 0.32 0.15 0.10 0.17 0.22 0.18 0.32 0.56 0.43 0.37 0.33 0.20 0.16 0.19 0.22 0.23 0.29 0.38 0.22 0.51 0.35 0.44 0.25 0.24 0.39 0.43 0.29 0.35 0.24 0.19 0.25 0.23 0.33 0.36 0.32 0.30 0.27 0.28 0.32 0.37 0.38 0.38 0.45 0.52 0.55 0.52 0.53 0.53 0.54 0.58 0.57 0.51 0.49 0.41 0.38 0.42 0.41 0.45 0.49 0.49 0.47
0.45 0.46 0.44 0.31 0.26 0.20 0.14 0.19 0.27 0.46 0.17 0.14 0.11 0.16 0.14 0.16 0.18 0.16 0.18 0.12 0.12 0.18 0.18 0.34 0.41 0.54 0.55 0.41 0.22 0.43 0.28 0.21 0.27 0.40 0.51 0.68 0.32 0.14 0.19 0.38 0.38 0.59 0.52 0.50 0.28 0.20 0.14 0.18 0.12 0.17 0.20 0.21 0.20 0.35 0.49 0.34 0.27 0.29 0.37 0.42 0.41 0.45 0.42 0.45 0.49 0.37 0.37 0.38 0.41 0.42 0.48 0.45 0.42 0.44 0.43 0.41 0.34 0.32 0.39 0.39 0.36 0.36 0.37 0.39 0.39
0.34 0.34 0.31 0.28 0.23 0.23 0.17 0.12 0.16 0.21 0.23 0.44 0.23 0.16 0.24 0.35 0.31 0.21 0.24 0.24 0.19 0.24 0.28 0.18 0.28 0.28 0.23 0.13 0.32 0.64 0.59 0.55 0.43 0.45 0.45 0.17 0.28 0.14 0.18 0.19 0.12 0.28 0.51 0.20 0.09 0.18 0.07 0.06 0.05 0.07 0.17 0.40 0.40 0.30 0.32 0.33 0.38 0.38 0.46 0.55 0.61 0.54 0.51 0.38 0.31 0.35 0.38 0.29 0.24 0.26 0.30 0.34 0.38 0.37 0.37 0.30 0.26 0.29 0.29 0.28 0.32 0.31 0.30 0.31 0.37
0.37 0.41 0.34 0.26 0.21 0.18 0.18 0.16 0.18 0.17 0.23 0.29 0.39 0.28 0.26 0.25 0.24 0.32 0.31 0.22 0.65 0.24 0.17 0.34 0.21 0.72 0.28 0.11 0.12 0.12 0.27 0.40 0.54 0.62 0.46 0.22 0.27 0.20 0.13 0.09 0.17 0.32 0.25 0.08 0.05 0.05 0.06 0.04 0.04 0.07 0.14 0.24 0.33 0.37 0.41 0.40 0.41 0.51 0.51 0.44 0.42 0.46 0.41 0.35 0.35 0.38 0.38 0.37 0.32 0.26 0.29 0.30 0.29 0.21 0.17 0.18 0.19 0.19 0.23 0.26 0.26 0.24 0.24 0.25 0.26
0.35 0.31 0.27 0.23 0.22 0.21 0.22 0.24 0.27 0.23 0.25 0.29 0.27 0.36 0.45 1.02 0.52 0.30 0.22 0.27 0.66 0.98 0.20 0.75 0.55 0.08 0.19 0.10 0.13 0.11 0.11 0.14 0.16 0.22 0.44 0.36 0.14 0.16 0.15 0.13 0.11 0.08 0.07 0.10 0.01 0.03 0.07 0.14 0.13 0.11 0.12 0.18 0.25 0.37 0.52 0.67 0.60 0.52 0.48 0.40 0.35 0.38 0.37 0.37 0.39 0.37 0.31 0.26 0.26 0.23 0.25 0.20 0.21 0.21 0.18 0.14 0.11 0.14 0.16 0.19 0.21 0.20 0.20 0.20 0.21
0.27 0.23 0.23 0.21 0.19 0.18 0.23 0.28 0.29 0.24 0.19 0.15 0.17 0.13 0.69 0.34 0.29 0.35 0.27 0.25 0.24 0.22 0.26 0.21 0.50 0.61 0.38 0.10 0.15 0.12 0.10 0.12 0.15 0.10 0.15 0.25 0.30 0.15 0.10 0.10 0.08 0.08 0.08 0.06 0.03 0.09 0.08 0.13 0.13 0.26 0.14 0.12 0.22 0.36 0.47 0.47 0.45 0.44 0.46 0.40 0.38 0.39 0.39 0.43 0.48 0.45 0.37 0.29 0.22 0.20 0.23 0.20 0.18 0.17 0.14 0.11 0.13 0.16 0.18 0.19 0.20 0.18 0.17 0.17 0.18
0.18 0.18 0.18 0.20 0.21 0.26 0.24 0.20 0.18 0.20 0.22 0.19 0.20 0.15 0.06 0.11 0.37 0.38 0.17 0.31 0.08 0.05 0.04 0.03 0.05 0.14 0.44 0.46 0.07 0.11 0.11 0.05 0.08 0.08 0.10 0.16 0.16 0.10 0.08 0.07 0.07 0.05 0.04 0.02 0.05 0.09 0.08 0.13 0.22 0.31 0.33 0.21 0.17 0.26 0.26 0.22 0.22 0.26 0.33 0.44 0.55 0.48 0.42 0.51 0.51 0.45 0.34 0.28 0.24 0.25 0.24 0.17 0.15 0.12 0.11 0.11 0.12 0.18 0.24 0.25 0.25 0.20 0.18 0.19 0.21
0.15 0.14 0.13 0.16 0.19 0.17 0.15 0.14 0.10 0.10 0.09 0.11 0.11 0.12 0.06 0.06 0.22 0.34 0.24 0.28 0.08 0.04 0.06 0.05 0.10 0.08 0.09 0.14 0.20 0.07 0.02 0.06 0.03 0.07 0.11 0.14 0.16 0.15 0.15 0.07 0.03 0.02 0.02 0.03 0.02 0.03 0.03 0.05 0.13 0.26 0.36 0.25 0.21 0.20 0.18 0.15 0.14 0.20 0.29 0.39 0.45 0.42 0.38 0.40 0.45 0.36 0.23 0.19 0.18 0.22 0.32 0.30 0.19 0.13 0.12 0.10 0.12 0.18 0.25 0.24 0.22 0.20 0.19 0.22 0.26
0.10 0.10 0.10 0.10 0.09 0.08 0.06 0.05 0.05 0.05 0.06 0.06 0.06 0.05 0.04 0.07 0.18 0.32 0.19 0.08 0.12 0.04 0.06 0.14 0.06 0.10 0.06 0.06 0.10 0.18 0.08 0.01 0.02 0.05 0.09 0.12 0.13 0.16 0.14 0.10 0.06 0.04 0.03 0.03 0.03 0.04 0.07 0.08 0.13 0.30 0.39 0.36 0.24 0.20 0.16 0.22 0.18 0.18 0.23 0.30 0.35 0.35 0.35 0.30 0.29 0.19 0.14 0.10 0.10 0.19 0.31 0.39 0.32 0.20 0.15 0.10 0.10 0.13 0.14 0.15 0.15 0.17 0.19 0.23 0.29
0.15 0.12 0.09 0.09 0.10 0.12 0.11 0.10 0.12 0.09 0.09 0.08 0.05 0.06 0.06 0.05 0.06 0.11 0.20 0.15 0.10 0.07 0.07 0.09 0.09 0.07 0.05 0.04 0.04 0.04 0.05 0.02 0.01 0.03 0.08 0.14 0.19 0.23 0.29 0.27 0.23 0.17 0.13 0.11 0.09 0.09 0.10 0.11 0.14 0.22 0.33 0.29 0.23 0.17 0.13 0.14 0.18 0.21 0.21 0.24 0.28 0.26 0.20 0.17 0.16 0.11 0.09 0.07 0.09 0.13 0.18 0.27 0.31 0.22 0.19 0.15 0.14 0.18 0.16 0.15 0.17 0.18 0.20 0.23 0.26
0.10 0.16 0.20 0.18 0.15 0.13 0.12 0.11 0.10 0.10 0.10 0.11 0.09 0.10 0.06 0.06 0.06 0.09 0.10 0.12 0.09 0.06 0.05 0.05 0.05 0.04 0.04 0.03 0.03 0.04 0.03 0.03 0.04 0.06 0.11 0.18 0.24 0.32 0.40 0.44 0.39 0.30 0.22 0.17 0.12 0.08 0.06 0.05 0.04 0.04 0.07 0.11 0.12 0.12 0.12 0.13 0.14 0.15 0.18 0.22 0.20 0.14 0.11 0.11 0.13 0.13 0.09 0.07 0.08 0.09 0.11 0.18 0.25 0.23 0.20 0.19 0.18 0.20 0.22 0.21 0.23 0.27 0.26 0.26 0.30
0.10 0.09 0.11 0.12 0.13 0.13 0.13 0.13 0.11 0.09 0.09 0.08 0.08 0.08 0.08 0.08 0.09 0.09 0.11 0.13 0.08 0.05 0.04 0.03 0.03 0.03 0.03 0.03 0.03 0.04 0.04 0.04 0.03 0.03 0.03 0.03 0.05 0.09 0.14 0.18 0.18 0.16 0.12 0.09 0.08 0.08 0.06 0.04 0.02 0.02 0.03 0.03 0.04 0.04 0.05 0.08 0.11 0.14 0.16 0.15 0.15 0.12 0.07 0.07 0.08 0.10 0.10 0.06 0.05 0.05 0.10 0.16 0.21 0.24 0.25 0.23 0.23 0.21 0.21 0.27 0.34 0.38 0.39 0.40 0.38
0.02 0.02 0.02 0.03 0.05 0.06 0.07 0.09 0.11 0.13 0.13 0.11 0.08 0.08 0.07 0.07 0.07 0.10 0.16 0.16 0.07 0.05 0.03 0.03 0.03 0.04 0.04 0.04 0.03 0.05 0.05 0.07 0.09 0.08 0.08 0.05 0.04 0.02 0.02 0.03 0.05 0.07 0.07 0.07 0.07 0.09 0.05 0.02 0.02 0.02 0.02 0.01 0.02 0.03 0.04 0.06 0.09 0.09 0.09 0.11 0.13 0.14 0.10 0.08 0.08 0.09 0.08 0.07 0.05 0.04 0.06 0.07 0.10 0.16 0.20 0.23 0.24 0.23 0.24 0.25 0.28 0.33 0.39 0.44 0.46